Location: North Evanston
(42.0634°N, 87.6976°W)
Time: 23:08:14
(UTC+00:00)

Transit 2A - Pass Details

Date: 18 May 2026
Orbit: 595 x 949 km, 66.7° (Epoch: 5 June)

Event Time Altitude Azimuth Distance (km) Brightness Sun altitude
Rises 05:33:28 0° 331° (NNW) 3,161 10.2 -28.3°
Reaches altitude 10° 05:35:57 10° 334° (NNW) 2,179 9.2 -28.3°
Enters shadow 05:40:02 57° 3° (N) 787 6.2 -28.4°
Maximum altitude 05:40:50 70° 57° (ENE) 703 - -28.4°
Drops below altitude 10° 05:45:17 10° 142° (SE) 1,989 - -28.4°
Sets 05:47:28 0° 145° (SE) 2,862 - -28.4°
